Hot Springs, AR

8:06 AM CST on November 22, 2017 (GMT -0600)
Hot Springs Memorial

Weather History for KHOT - October, 2012

Change the Weather History Date:

Saturday, October 6, 2012

  Actual Average Record
Temperature  
Mean Temperature 48 °F -  
Max Temperature 52 °F 80 °F 97 °F (1956)
Min Temperature 44 °F 53 °F 39 °F (1985)
Degree Days  
Heating Degree Days 17    
Moisture  
Dew Point 38 °F    
Average Humidity 69    
Maximum Humidity 82    
Minimum Humidity 54    
Precipitation  
Precipitation 0.02 in - - ()
Sea Level Pressure  
Sea Level Pressure 30.21 in    
Wind  
Wind Speed 7 mph (NE)    
Max Wind Speed 14 mph    
Max Gust Speed 24 mph    
Visibility 10 miles    
Events Rain , Thunderstorm    
Averages and records for this station are not official NWS values.
T = Trace of Precipitation, MM = Missing Value Source: NWS Daily Summary

Daily Weather History Graph

Daily Weather History Graph

Search for Another Location

Airport or City:

Trip Planner

Search our weather history database for the weather conditions in past years. The results will help you decide how hot, cold, wet, or windy it might be!

Date:

Astronomy

Oct. 06, 2012 Rise Set
Actual Time 7:11 AM CDT 6:48 PM CDT
Civil Twilight 6:46 AM CDT 7:14 PM CDT
Nautical Twilight 6:16 AM CDT 7:43 PM CDT
Astronomical Twilight 5:47 AM CDT 8:12 PM CDT
Moon 11:16 PM CDT (10/6) 12:54 PM CDT (10/6)
Length of Visible Light 12h 28m
Length of Day
11h 37m
Waning Gibbous, 65% of the Moon is Illuminated
Oct 6
Waning Gibbous
Oct 8
Last Quarter
Oct 15
New
Oct 21
First Quarter
Oct 29
Full

Hourly Weather History & Observations

Time (CDT) Temp. Windchill Dew Point Humidity Pressure Visibility Wind Dir Wind Speed Gust Speed Precip Events Conditions
12:37 AM 51.8 °F - 46.4 °F 82% 30.16 in 10.0 mi NNE 5.8 mph - N/A   Overcast
12:53 AM 52.0 °F - 45.0 °F 77% 30.15 in 10.0 mi NNE 5.8 mph - N/A   Overcast
1:41 AM 51.8 °F - 44.6 °F 76% 30.16 in 10.0 mi NE 8.1 mph - N/A   Overcast
1:53 AM 51.1 °F - 45.0 °F 80% 30.15 in 10.0 mi ENE 8.1 mph - 0.00 in Rain Light Rain
2:25 AM 51.8 °F - 42.8 °F 71% 30.17 in 10.0 mi NE 8.1 mph - N/A   Overcast
2:53 AM 50.0 °F - 41.0 °F 71% 30.16 in 10.0 mi NE 9.2 mph - N/A   Overcast
3:53 AM 48.9 °F - 37.9 °F 66% 30.16 in 10.0 mi NE 11.5 mph - N/A   Mostly Cloudy
4:53 AM 48.9 °F - 36.0 °F 61% 30.18 in 10.0 mi NE 13.8 mph 19.6 mph N/A   Overcast
5:53 AM 48.0 °F - 37.9 °F 68% 30.19 in 10.0 mi NE 10.4 mph - N/A   Overcast
6:53 AM 48.0 °F - 36.0 °F 63% 30.21 in 10.0 mi NE 12.7 mph 20.7 mph N/A   Overcast
7:53 AM 48.0 °F - 36.0 °F 63% 30.22 in 10.0 mi NE 11.5 mph 24.2 mph N/A   Overcast
8:53 AM 48.0 °F - 35.1 °F 61% 30.19 in 10.0 mi ENE 13.8 mph 23.0 mph N/A   Overcast
9:53 AM 48.0 °F - 34.0 °F 58% 30.20 in 10.0 mi ENE 11.5 mph - N/A   Overcast
10:35 AM 48.2 °F - 33.8 °F 58% 30.27 in 10.0 mi North 5.8 mph - N/A Thunderstorm Overcast
10:53 AM 48.9 °F - 33.1 °F 54% 30.23 in 10.0 mi ENE 8.1 mph 16.1 mph 0.00 in Rain , Thunderstorm Light Rain
11:00 AM 48.2 °F - 33.8 °F 58% 30.21 in 10.0 mi ENE 10.4 mph - 0.00 in   Overcast
11:16 AM 50.0 °F - 33.8 °F 54% 30.21 in 10.0 mi East 9.2 mph - 0.00 in Thunderstorm Overcast
11:31 AM 48.2 °F - 32.0 °F 54% 30.22 in 10.0 mi ENE 4.6 mph - 0.00 in   Overcast
11:53 AM 48.9 °F - 35.1 °F 59% 30.23 in 10.0 mi NNE 8.1 mph - 0.00 in Rain Light Rain
12:20 PM 46.4 °F 41.9 °F 37.4 °F 71% 30.25 in 10.0 mi NNE 9.2 mph - 0.00 in Thunderstorm Thunderstorm
12:35 PM 46.4 °F 42.9 °F 35.6 °F 66% 30.24 in 10.0 mi NE 6.9 mph - 0.00 in   Overcast
12:53 PM 45.0 °F 41.2 °F 37.9 °F 76% 30.24 in 10.0 mi NE 6.9 mph - 0.00 in Rain Light Rain
1:53 PM 44.1 °F 40.1 °F 37.9 °F 79% 30.23 in 5.0 mi NNE 6.9 mph - 0.00 in Rain Light Rain
2:53 PM 46.0 °F - 37.9 °F 73% 30.21 in 10.0 mi Calm Calm - 0.00 in   Overcast
3:53 PM 46.9 °F - 39.9 °F 77% 30.21 in 10.0 mi Variable 3.5 mph - 0.01 in   Overcast
4:53 PM 48.0 °F - 39.9 °F 74% 30.19 in 10.0 mi North 4.6 mph - N/A   Overcast
5:53 PM 48.0 °F - 39.9 °F 74% 30.19 in 10.0 mi Variable 4.6 mph - N/A   Overcast
6:53 PM 46.9 °F - 39.0 °F 74% 30.19 in 10.0 mi NNE 6.9 mph - N/A   Overcast
7:35 PM 46.4 °F - 37.4 °F 71% 30.22 in 10.0 mi Calm Calm - 0.00 in Rain , Thunderstorm Light Rain
7:50 PM 46.4 °F 44.3 °F 37.4 °F 71% 30.22 in 10.0 mi Variable 4.6 mph - 0.00 in Rain Light Rain
7:53 PM 46.0 °F 44.8 °F 37.9 °F 73% 30.22 in 8.0 mi NE 3.5 mph - 0.00 in Rain Rain
8:53 PM 46.0 °F 42.5 °F 36.0 °F 68% 30.23 in 10.0 mi NE 6.9 mph - 0.01 in Rain Light Rain
9:53 PM 46.0 °F 43.9 °F 37.0 °F 71% 30.25 in 10.0 mi Variable 4.6 mph - 0.00 in   Overcast
10:53 PM 46.4 °F 45.2 °F 39.2 °F 76% 30.25 in 10.0 mi Variable 3.5 mph - N/A   Overcast
11:53 PM 46.9 °F - 39.9 °F 77% 30.25 in 10.0 mi Calm Calm - 0.00 in   Overcast